This is the latest recevied weather packets stored in our database for station/object IK2ILW-4. If no packets are shown the sender has not sent any weather packets the latest 10 day(s).
| Time | Temp. | Humidity | Pressure | Rain* | Wind** | Luminosity | Snow |
|---|---|---|---|---|---|---|---|
| 1778119361 | 5° C | 94% | 1012.3 hPa | 0.51 mm | - | 0 W/m² | - |
| 1778119061 | 5° C | 94% | 1012.1 hPa | 0.51 mm | - | 0 W/m² | - |
| 1778118760 | 5° C | 93% | 1012.1 hPa | 0.25 mm | - | 0 W/m² | - |
| 1778118456 | 5.56° C | 91% | 1012.1 hPa | 0.25 mm | - | 0 W/m² | - |
| 1778118152 | 5.56° C | 90% | 1012 hPa | 0.25 mm | - | 0 W/m² | - |
| 1778117851 | 5.56° C | 90% | 1012 hPa | 0.25 mm | - | 0 W/m² | - |
| 1778117550 | 5° C | 92% | 1012 hPa | 0.25 mm | - | 0 W/m² | - |
| 1778117271 | 5° C | 93% | 1011.9 hPa | 0.25 mm | - | 0 W/m² | - |
| 1778116966 | 5° C | 92% | 1011.9 hPa | 0.25 mm | - | 0 W/m² | - |
| 1778116662 | 5.56° C | 91% | 1011.9 hPa | 0.25 mm | - | 0 W/m² | - |
| 1778116362 | 5.56° C | 89% | 1012.1 hPa | 0.25 mm | - | 0 W/m² | - |
| 1778116061 | 6.11° C | 87% | 1012.1 hPa | 0.25 mm | - | 0 W/m² | - |
| 1778115758 | 6.11° C | 88% | 1012.1 hPa | 0.25 mm | - | 0 W/m² | - |
| 1778115457 | 5.56° C | 89% | 1012.2 hPa | 0.25 mm | - | 0 W/m² | - |
| 1778115157 | 5.56° C | 91% | 1012.2 hPa | 0.25 mm | - | 0 W/m² | - |
| 1778114856 | 5.56° C | 91% | 1012.2 hPa | 0 mm | - | 0 W/m² | - |
| 1778114556 | 5.56° C | 91% | 1012.2 hPa | 0 mm | - | 0 W/m² | - |
| 1778114273 | 5.56° C | 91% | 1012.2 hPa | 0 mm | - | 0 W/m² | - |
| 1778110362 | 5° C | 94% | 1012.6 hPa | 0 mm | - | 0 W/m² | - |
| 1778110058 | 5° C | 95% | 1012.4 hPa | 0 mm | - | 0 W/m² | - |
| 1778109754 | 5° C | 94% | 1012.4 hPa | 0 mm | - | 0 W/m² | - |
| 1778109454 | 5° C | 94% | 1012.4 hPa | 0 mm | - | 0 W/m² | - |
| 1778109169 | 5° C | 93% | 1012.2 hPa | 0 mm | - | 0 W/m² | - |
| 1778108865 | 5° C | 92% | 1012.2 hPa | 0 mm | - | 0 W/m² | - |
| 1778108561 | 5° C | 92% | 1012.2 hPa | 0 mm | - | 0 W/m² | - |
* Rain since midnight (hover to see other rain measurements)
** Current wind speed in m/s (hover to see current wind gust speed)